TimeMST,TemperatureF,Dew PointF,Humidity,Sea Level PressureIn,VisibilityMPH,Wind Direction,Wind SpeedMPH,Gust SpeedMPH,PrecipitationIn,Events,Conditions,WindDirDegrees,DateUTC
12:15 AM,-0.4,-2.2,92,30.30,3.0,Calm,Calm,-,N/A,,Clear,0,2013-01-06 07:15:00
12:35 AM,-0.4,-0.4,100,30.29,3.0,ESE,3.5,-,N/A,,Clear,110,2013-01-06 07:35:00
12:55 AM,-0.4,-0.4,100,30.28,2.5,Calm,Calm,-,N/A,,Clear,0,2013-01-06 07:55:00
1:15 AM,1.4,-0.4,92,30.28,2.5,Calm,Calm,-,N/A,,Clear,0,2013-01-06 08:15:00
1:35 AM,1.4,-2.2,85,30.27,2.5,Calm,Calm,-,N/A,,Clear,0,2013-01-06 08:35:00
1:55 AM,-0.4,-0.4,100,30.27,2.5,Calm,Calm,-,N/A,,Clear,0,2013-01-06 08:55:00
2:15 AM,-0.4,-0.4,100,30.26,2.5,Calm,Calm,-,N/A,,Clear,0,2013-01-06 09:15:00
2:35 AM,-0.4,-4.0,85,30.27,3.0,Calm,Calm,-,N/A,,Clear,0,2013-01-06 09:35:00
2:55 AM,-0.4,-0.4,100,30.26,3.0,Calm,Calm,-,N/A,,Clear,0,2013-01-06 09:55:00
3:15 AM,-0.4,-4.0,85,30.26,3.0,Calm,Calm,-,N/A,,Clear,0,2013-01-06 10:15:00
3:35 AM,-0.4,-0.4,100,30.26,2.5,Calm,Calm,-,N/A,,Clear,0,2013-01-06 10:35:00
4:35 AM,1.4,-2.2,85,30.24,4.0,Calm,Calm,-,N/A,,Clear,0,2013-01-06 11:35:00
4:55 AM,-0.4,-2.2,92,30.24,3.0,Calm,Calm,-,N/A,,Clear,0,2013-01-06 11:55:00
5:15 AM,1.4,1.4,100,30.22,3.0,Calm,Calm,-,N/A,,Clear,0,2013-01-06 12:15:00
5:35 AM,1.4,-0.4,92,30.22,3.0,Calm,Calm,-,N/A,,Clear,0,2013-01-06 12:35:00
5:55 AM,1.4,1.4,100,30.22,4.0,Calm,Calm,-,N/A,,Clear,0,2013-01-06 12:55:00
6:15 AM,1.4,-0.4,92,30.22,3.0,Calm,Calm,-,N/A,,Clear,0,2013-01-06 13:15:00
6:35 AM,1.4,1.4,100,30.22,3.0,Calm,Calm,-,N/A,,Clear,0,2013-01-06 13:35:00
6:47 AM,1.4,1.4,100,30.21,3.0,Calm,Calm,-,N/A,,Clear,0,2013-01-06 13:47:00
7:50 AM,3.2,3.2,100,30.20,3.0,Calm,Calm,-,N/A,,Mostly Cloudy,0,2013-01-06 14:50:00
8:47 AM,3.2,3.2,100,30.21,2.5,Calm,Calm,-,N/A,,Mostly Cloudy,0,2013-01-06 15:47:00
9:50 AM,6.8,5.0,92,30.20,2.5,Calm,Calm,-,N/A,,Mostly Cloudy,0,2013-01-06 16:50:00
10:55 AM,6.8,6.8,100,30.20,2.0,Calm,Calm,-,N/A,,Overcast,0,2013-01-06 17:55:00
11:50 AM,8.6,6.8,92,30.17,2.0,Calm,Calm,-,N/A,,Overcast,0,2013-01-06 18:50:00
12:55 PM,12.2,8.6,85,30.12,2.0,Calm,Calm,-,N/A,,Overcast,0,2013-01-06 19:55:00
1:47 PM,12.2,8.6,85,30.10,3.0,Calm,Calm,-,N/A,,Haze,0,2013-01-06 20:47:00
2:48 PM,12.2,8.6,85,30.09,3.0,Calm,Calm,-,N/A,,Haze,0,2013-01-06 21:48:00
3:50 PM,15.8,12.2,86,30.09,3.0,Calm,Calm,-,N/A,,Haze,0,2013-01-06 22:50:00
4:50 PM,12.2,8.6,85,30.08,3.0,Calm,Calm,-,N/A,,Haze,0,2013-01-06 23:50:00
5:50 PM,10.4,6.8,85,30.08,3.0,Calm,Calm,-,N/A,,Haze,0,2013-01-07 00:50:00
6:50 PM,8.6,6.8,92,30.11,3.0,Calm,Calm,-,N/A,,Haze,0,2013-01-07 01:50:00
7:50 PM,8.6,6.8,92,30.11,3.0,Calm,Calm,-,N/A,,Haze,0,2013-01-07 02:50:00
8:50 PM,8.6,6.8,92,30.12,3.0,Calm,Calm,-,N/A,,Haze,0,2013-01-07 03:50:00
9:15 PM,10.4,8.6,92,30.12,2.5,Calm,Calm,-,N/A,,Clear,0,2013-01-07 04:15:00
9:35 PM,10.4,8.6,92,30.12,2.5,East,4.6,-,N/A,,Clear,90,2013-01-07 04:35:00
10:55 PM,6.8,5.0,92,30.13,3.0,Calm,Calm,-,N/A,,Clear,0,2013-01-07 05:55:00
11:35 PM,6.8,1.4,79,30.14,3.0,Calm,Calm,-,N/A,,Clear,0,2013-01-07 06:35:00